Location: Beverley
(50.2667°N, 107.9667°W)
Time: 17:47:03
(UTC+00:00)

XW-2A - Pass Details

Date: 04 July 2022
Orbit: 396 x 406 km, 97.2° (Epoch: 10 August)

Event Time Altitude Azimuth Distance (km) Brightness Sun altitude
Exits shadow 04:41:55 - 196° (SSW) 2,003 ? -9.3°
Reaches altitude 10° 04:43:24 10° 208° (SSW) 1,442 ? -9.4°
Maximum altitude 04:45:58 24° 265° (W) 872 ? -9.7°
Drops below altitude 10° 04:48:35 10° 322° (NW) 1,453 ? -9.9°
Sets 04:50:48 0° 337° (NNW) 2,318 ? -10.1°
